Temp
17 17 17 17 18 18 18 18 19 19 18 17 17 17 17 17 16 15 15 15 14 14 14 13 13 13 12 13 12 12 11 11 12 12 11 11 11 10 10 10 8 8 7
17 17 17 17 17 17 18 18 18 19 19 18 17 17 17 17 17 16 15 16 15 15 14 13 13 13 13 12 12 12 12 12 12 12 11 11 10 10 9 9 8 7 7
15 16 17 17 17 17 17 17 18 18 18 18 18 17 17 17 16 16 16 16 15 15 16 14 14 13 13 13 12 12 12 12 12 11 11 11 11 10 9 8 7 7 6
16 16 16 16 17 17 17 17 17 17 17 18 17 18 17 17 16 16 16 16 15 15 16 15 14 14 13 12 12 12 11 12 12 11 11 11 10 10 9 8 7 6 6
17 17 17 17 17 17 17 17 17 17 17 17 17 17 17 17 17 16 16 16 15 15 15 15 15 14 12 12 11 11 11 11 11 11 11 10 9 9 8 8 7 6 6
18 17 17 17 17 17 16 16 16 16 16 17 16 17 17 17 17 17 16 16 15 15 15 15 14 12 11 11 11 10 10 10 10 10 10 9 9 8 7 7 6 6 6
15 16 16 16 16 16 16 16 16 16 16 16 16 16 16 17 16 17 17 16 16 15 15 15 14 11 10 11 10 10 10 9 9 9 9 8 8 7 6 5 4 3 4
14 15 14 15 15 15 15 15 15 16 16 16 15 16 16 16 16 16 16 16 16 16 15 14 11 10 10 10 9 9 8 8 8 8 8 7 6 6 5 4 3 2 2
12 12 13 14 14 14 14 14 15 15 15 15 15 15 15 15 16 16 16 16 15 15 14 12 10 9 8 9 8 7 7 6 7 7 7 6 5 5 4 3 2 1 -1
11 12 12 13 13 13 13 13 14 14 15 14 14 14 14 15 15 16 15 15 14 13 11 10 9 8 7 7 6 6 6 5 6 6 6 5 4 4 3 2 1 0 -1
10 10 11 11 12 12 12 13 14 14 14 14 14 14 14 13 14 15 14 14 13 10 10 9 8 6 6 5 5 4 4 4 5 5 5 3 3 3 2 1 0 -1 -2
9 9 9 10 11 11 11 12 13 14 13 14 13 13 12 13 13 13 13 12 10 9 9 7 6 5 4 4 3 3 3 3 3 3 3 2 2 2 0 -0 -1 -1 -2
8 8 9 10 10 10 11 12 12 12 12 13 12 12 11 12 12 10 9 9 8 7 6 5 4 4 3 4 3 3 3 3 2 2 2 2 1 0 -0 -1 -2 -3 -4
8 7 7 9 9 9 10 11 11 10 10 10 10 10 11 10 10 9 8 7 6 6 4 3 3 2 2 2 3 3 1 1 1 -0 0 1 0 -1 -2 -2 -3 -4 -5
6 7 7 8 8 8 8 9 9 8 7 8 8 9 8 7 7 7 5 4 4 3 2 2 2 2 2 0 1 1 0 -1 -2 0 0 -0 -1 -2 -3 -5 -5 -6 -6
5 6 7 7 7 7 7 7 8 6 5 4 5 6 4 5 5 4 3 2 2 1 1 1 1 1 -0 1 1 -0 -0 -0 0 -0 -1 -1 -2 -3 -4 -5 -6 -7 -7
5 5 7 6 6 6 5 5 4 4 2 3 2 2 4 4 2 1 2 1 1 1 0 0 0 0 2 1 -1 -1 -1 -1 -1 -1 -1 -2 -3 -4 -5 -5 -6 -7 -7
3 4 4 4 4 4 4 3 2 2 2 2 1 0 1 1 1 1 0 -0 -0 -0 1 0 -0 -1 -0 -1 -1 -1 -1 -1 -2 -2 -3 -4 -4 -5 -5 -7 -8 -8 -8
2 2 3 3 4 3 3 2 2 2 1 1 0 0 0 -0 0 0 -0 -0 -0 0 0 -1 -2 -2 -2 -1 -1 -1 -2 -2 -3 -3 -5 -5 -5 -6 -8 -8 -8 -8 -8
1 1 1 1 2 2 2 2 2 2 1 1 0 -0 0 0 -0 -1 -0 -1 -0 -2 -2 -2 -1 -1 -1 -2 -2 -4 -3 -4 -4 -4 -4 -6 -7 -9 -8 -8 -8 -8 -8
-0 -0 -0 -0 -0 0 1 1 1 1 -1 -0 -1 -1 -1 -0 -0 -0 0 -1 -1 -2 -2 -1 -1 -2 -2 -3 -4 -5 -6 -5 -5 -6 -6 -7 -8 -9 -9 -9 -9 -9 -9
-1 -1 -2 -1 -1 -1 0 -1 0 -1 -0 -1 -0 -0 -0 -0 -0 -0 -1 -2 -2 -2 -2 -1 -2 -3 -3 -4 -4 -5 -6 -6 -7 -7 -8 -9 -9 -10 -10 -9 -8 -10 -9
-0 -1 -1 -2 -2 -2 -1 0 -1 -0 -0 -0 -1 -1 -1 -2 -2 -2 -2 -2 -2 -2 -2 -2 -3 -3 -4 -4 -5 -6 -6 -7 -9 -9 -10 -10 -9 -9 -8 -8 -8 -8 -8
0 0 -0 -0 -0 -0 0 0 -0 -0 -0 -0 -1 -1 -1 -2 -2 -2 -2 -1 -1 -2 -2 -2 -3 -4 -5 -6 -6 -7 -8 -9 -9 -10 -10 -10 -9 -9 -9 -8 -8 -8 -8
1 1 1 0 -0 -0 -0 -0 -0 -0 -1 -2 -2 -1 -1 -1 -1 -1 -1 -1 -1 -2 -2 -4 -5 -6 -6 -7 -9 -10 -10 -10 -10 -10 -9 -9 -9 -8 -8 -8 -8 -8 -8
2 2 2 1 1 1 1 0 -0 -1 -0 -0 -1 -1 -1 -0 -1 -1 -1 -2 -3 -4 -5 -6 -7 -9 -9 -10 -10 -9 -10 -10 -11 -10 -9 -9 -9 -9 -9 -8 -8 -8 -8
Height
1457 1460 1462 1465 1467 1470 1473 1475 1478 1481 1484 1485 1489 1491 1493 1496 1498 1501 1503 1505 1508 1511 1513 1516 1517 1520 1522 1524 1525 1526 1526 1527 1528 1529 1529 1528 1527 1527 1526 1525 1526 1525 1524
1451 1452 1456 1459 1461 1463 1466 1469 1471 1473 1476 1479 1482 1484 1486 1489 1492 1495 1498 1501 1503 1505 1509 1511 1513 1515 1518 1520 1521 1522 1524 1524 1525 1525 1525 1525 1525 1524 1523 1523 1523 1522 1522
1442 1444 1448 1451 1455 1457 1460 1462 1464 1465 1468 1470 1472 1477 1480 1482 1485 1490 1493 1496 1497 1498 1503 1506 1508 1510 1512 1515 1518 1519 1520 1521 1522 1522 1523 1521 1520 1520 1520 1519 1520 1519 1518
1436 1437 1439 1442 1446 1449 1452 1455 1457 1458 1461 1462 1463 1467 1470 1473 1477 1482 1486 1490 1492 1493 1497 1501 1503 1504 1506 1509 1513 1515 1516 1517 1518 1519 1519 1518 1518 1518 1517 1516 1516 1514 1514
1434 1435 1436 1437 1440 1443 1446 1448 1450 1452 1455 1457 1458 1460 1463 1465 1469 1473 1478 1483 1486 1488 1492 1495 1497 1498 1500 1504 1507 1510 1512 1514 1514 1514 1515 1515 1514 1514 1514 1512 1512 1511 1510
1432 1433 1434 1435 1436 1439 1440 1442 1443 1445 1448 1451 1452 1453 1454 1459 1462 1466 1471 1476 1480 1484 1487 1490 1492 1493 1496 1499 1501 1505 1507 1510 1511 1510 1510 1510 1510 1510 1510 1508 1507 1506 1506
1434 1433 1432 1432 1433 1435 1436 1438 1438 1439 1442 1443 1444 1445 1447 1451 1455 1460 1463 1468 1473 1477 1480 1483 1486 1487 1491 1494 1497 1500 1502 1505 1506 1506 1506 1506 1504 1504 1504 1504 1503 1500 1498
1435 1434 1433 1431 1431 1432 1432 1433 1434 1434 1436 1436 1436 1438 1440 1444 1448 1453 1457 1462 1466 1470 1473 1477 1480 1484 1488 1490 1492 1494 1498 1501 1502 1503 1501 1502 1501 1500 1499 1499 1499 1495 1492
1436 1435 1433 1430 1428 1428 1428 1428 1429 1429 1429 1429 1428 1430 1433 1436 1440 1445 1450 1456 1460 1464 1467 1470 1475 1480 1484 1485 1487 1491 1493 1497 1497 1498 1497 1498 1498 1496 1495 1494 1493 1491 1487
1433 1432 1432 1431 1428 1425 1425 1424 1424 1422 1421 1420 1421 1422 1425 1428 1433 1438 1443 1449 1454 1458 1462 1467 1471 1475 1479 1481 1484 1486 1487 1495 1494 1495 1493 1495 1493 1492 1491 1489 1488 1485 1484
1430 1427 1424 1423 1422 1421 1420 1418 1416 1416 1413 1413 1415 1417 1418 1421 1427 1433 1439 1444 1448 1453 1458 1462 1466 1471 1475 1478 1482 1484 1488 1491 1491 1492 1490 1491 1490 1486 1486 1485 1482 1480 1479
1427 1423 1422 1421 1418 1418 1416 1413 1412 1410 1410 1407 1410 1412 1414 1419 1425 1430 1435 1439 1444 1449 1454 1458 1462 1468 1472 1475 1479 1482 1485 1490 1488 1489 1487 1488 1486 1484 1482 1480 1477 1474 1473
1423 1420 1418 1417 1416 1414 1412 1410 1408 1407 1405 1403 1407 1410 1414 1419 1423 1427 1432 1436 1440 1446 1450 1456 1460 1465 1470 1471 1475 1479 1481 1482 1484 1484 1484 1484 1482 1481 1479 1475 1471 1469 1467
1419 1417 1414 1411 1411 1410 1409 1408 1407 1406 1400 1404 1407 1410 1415 1417 1421 1426 1430 1435 1438 1442 1448 1454 1460 1466 1470 1473 1473 1474 1477 1480 1479 1480 1480 1479 1477 1476 1474 1470 1466 1463 1461
1414 1411 1410 1407 1407 1407 1406 1405 1402 1402 1404 1406 1409 1407 1414 1418 1420 1424 1428 1432 1437 1443 1449 1454 1459 1465 1468 1468 1471 1473 1474 1476 1477 1476 1475 1473 1472 1470 1468 1464 1461 1459 1456
1412 1409 1407 1407 1406 1406 1405 1403 1401 1403 1406 1409 1409 1409 1413 1418 1421 1423 1429 1434 1439 1445 1451 1457 1460 1463 1466 1469 1470 1469 1472 1475 1474 1472 1470 1468 1467 1464 1462 1459 1456 1454 1451
1410 1409 1406 1406 1405 1405 1405 1404 1404 1406 1410 1409 1411 1414 1416 1419 1422 1426 1433 1437 1441 1447 1451 1457 1462 1464 1464 1464 1465 1468 1473 1471 1470 1467 1464 1463 1460 1457 1455 1452 1450 1447 1445
1413 1411 1409 1408 1407 1407 1408 1408 1408 1411 1411 1413 1415 1418 1421 1424 1429 1433 1437 1441 1445 1450 1454 1457 1457 1463 1464 1466 1466 1469 1468 1466 1465 1462 1459 1456 1454 1452 1449 1446 1444 1442 1439
1416 1414 1412 1411 1410 1410 1411 1412 1413 1415 1417 1419 1422 1425 1429 1432 1435 1437 1439 1441 1449 1452 1454 1460 1463 1462 1464 1463 1463 1465 1464 1461 1459 1456 1455 1451 1448 1446 1445 1442 1438 1434 1431
1419 1418 1417 1416 1416 1415 1416 1417 1419 1420 1421 1423 1426 1429 1431 1430 1437 1442 1445 1448 1451 1456 1459 1461 1463 1463 1463 1463 1462 1461 1458 1456 1453 1452 1449 1447 1444 1441 1440 1437 1432 1428 1425
1422 1420 1419 1419 1420 1421 1421 1420 1422 1423 1425 1425 1427 1432 1438 1440 1443 1447 1448 1451 1455 1458 1460 1461 1461 1462 1462 1461 1460 1458 1454 1451 1448 1447 1445 1442 1438 1437 1435 1431 1427 1423 1421
1424 1423 1423 1423 1424 1424 1426 1426 1427 1429 1431 1434 1437 1440 1443 1446 1450 1452 1454 1456 1458 1460 1461 1460 1461 1461 1460 1458 1456 1453 1451 1448 1445 1443 1439 1436 1434 1430 1427 1424 1421 1418 1415
1428 1428 1427 1427 1428 1429 1431 1432 1434 1436 1439 1441 1444 1446 1448 1451 1454 1456 1458 1459 1460 1460 1460 1460 1460 1458 1457 1455 1452 1450 1447 1445 1442 1439 1436 1432 1428 1425 1422 1419 1416 1413 1410
1432 1432 1433 1433 1434 1436 1438 1440 1441 1443 1445 1447 1450 1452 1453 1455 1457 1459 1459 1459 1459 1459 1459 1459 1457 1455 1454 1452 1449 1447 1444 1441 1438 1434 1430 1427 1424 1422 1419 1416 1413 1410 1406
1435 1436 1437 1438 1440 1442 1444 1445 1447 1448 1450 1452 1453 1455 1457 1458 1460 1460 1460 1459 1459 1459 1458 1456 1455 1453 1451 1449 1447 1444 1441 1438 1434 1430 1426 1424 1421 1418 1415 1412 1409 1405 1402
1438 1440 1441 1442 1444 1446 1448 1449 1451 1454 1455 1456 1457 1458 1459 1460 1460 1460 1460 1459 1458 1456 1455 1453 1452 1450 1448 1446 1443 1440 1438 1433 1430 1426 1423 1421 1417 1414 1411 1408 1404 1401 1398
Wind_Speed
37 30 25 26 31 37 40 36 35 35 38 43 40 37 36 35 34 32 30 27 27 26 28 26 27 26 26 23 21 19 18 17 15 12 11 10 10 9 7 6 7 9 9
42 39 34 31 27 24 26 36 40 35 35 43 45 44 39 39 37 35 33 30 32 30 26 30 31 29 28 26 24 19 19 19 16 13 11 7 9 11 9 9 10 10 11
44 43 40 38 37 36 32 27 27 33 37 37 46 47 41 39 39 39 36 37 37 35 30 29 31 32 31 29 25 21 20 20 17 14 10 6 6 7 10 11 12 12 13
30 30 30 32 36 34 33 35 33 28 28 26 41 48 47 44 41 40 41 40 39 39 33 30 33 34 33 30 26 23 22 21 19 16 14 13 11 7 5 9 12 13 14
21 21 21 21 23 26 28 30 35 38 31 28 31 38 48 49 46 44 43 40 41 41 37 34 34 35 36 31 28 26 23 22 20 17 14 13 12 12 12 9 11 13 16
12 12 13 17 20 23 24 21 23 29 28 28 34 36 38 47 47 43 44 42 42 42 39 37 38 37 34 33 31 26 23 22 19 17 14 13 11 11 12 13 16 19 21
2 5 8 9 12 15 16 17 17 19 25 28 31 33 40 40 46 46 42 43 43 43 42 39 39 37 34 33 29 25 24 22 19 17 14 13 12 13 13 15 17 21 25
23 16 10 11 14 15 16 17 19 21 24 26 29 34 35 40 41 45 46 40 42 43 39 40 38 34 32 31 29 26 23 20 18 15 12 12 12 12 13 15 17 21 24
31 28 14 12 12 12 14 16 19 22 27 31 32 31 34 37 39 42 46 41 38 38 38 38 33 32 32 31 28 23 22 20 16 15 13 13 13 13 14 15 17 18 17
36 34 29 17 10 9 12 15 19 21 25 28 30 29 31 34 38 42 41 40 38 36 36 33 32 32 29 28 26 22 19 17 14 13 12 12 12 14 15 16 17 19 21
32 30 21 20 14 11 13 16 19 23 24 25 26 27 29 33 38 37 36 35 33 32 32 33 32 30 30 25 22 18 17 13 12 12 11 12 14 14 17 18 19 20 23
27 25 28 22 14 14 15 16 19 23 25 23 24 25 27 28 30 32 30 29 28 30 30 32 31 30 26 23 20 16 11 12 9 11 12 14 17 18 19 20 21 22 23
24 23 19 16 18 23 26 23 20 22 22 21 25 25 25 25 27 25 24 24 26 28 31 32 30 27 26 22 17 14 11 7 9 11 13 17 19 20 21 22 22 23 25
27 24 24 17 16 19 20 20 17 18 16 22 24 24 22 24 21 20 22 24 27 30 31 26 24 21 20 16 13 8 7 9 12 15 18 20 21 22 22 22 22 22 24
21 21 23 5 9 11 12 9 9 12 18 21 24 22 24 24 22 24 26 28 28 27 26 24 21 20 16 13 10 8 8 11 13 18 19 19 20 21 20 19 20 21 24
17 13 5 2 3 5 5 6 5 9 15 18 20 22 24 22 23 24 25 25 25 24 22 22 19 16 11 6 7 5 7 14 17 16 17 18 20 20 20 18 18 18 21
7 6 3 3 4 4 4 4 7 11 15 17 20 22 21 22 23 24 24 24 24 24 20 17 14 11 10 6 4 9 15 13 15 16 18 19 20 20 21 22 21 18 20
4 3 3 4 5 6 7 8 11 11 13 15 17 18 18 19 22 24 23 23 22 20 16 10 6 2 1 4 9 11 11 12 15 17 17 18 19 20 20 17 19 21 24
5 5 5 7 9 9 10 11 12 11 11 12 13 15 15 20 20 22 24 21 16 13 12 8 6 0 4 7 9 11 12 14 16 16 16 19 22 20 16 18 22 25 27
5 5 6 7 8 11 10 7 11 10 12 14 15 19 21 23 23 21 19 16 12 9 6 2 2 4 6 8 9 13 17 18 19 19 21 23 21 18 16 19 24 28 29
4 3 5 8 10 11 11 15 16 15 17 21 23 23 22 21 17 14 12 11 8 6 5 3 3 6 7 8 10 11 15 19 22 23 24 22 18 16 18 18 22 21 19
5 5 6 10 12 14 16 16 18 20 21 24 23 20 17 16 15 12 11 10 7 5 3 3 5 8 10 12 14 16 16 18 21 22 21 19 17 19 19 17 17 17 19
11 11 13 13 13 12 15 23 24 22 20 18 19 18 16 15 13 10 9 6 4 1 3 5 7 10 13 15 15 16 17 17 16 18 17 19 22 20 17 16 15 16 18
16 18 18 20 21 20 20 19 19 18 17 17 16 14 13 12 10 7 4 1 2 4 6 9 12 12 12 13 14 15 16 17 18 20 22 21 18 16 14 13 13 15 17
16 15 16 18 19 18 17 17 17 16 15 14 13 12 9 8 5 2 1 2 5 7 9 9 10 11 13 12 12 14 17 16 17 18 18 15 12 12 13 13 15 16 18
17 16 16 16 18 16 16 15 14 11 10 11 10 8 5 3 1 1 3 5 7 8 9 10 10 12 11 11 15 17 14 17 14 15 14 12 13 15 17 18 19 17 19
Wind_Direction
260 263 257 254 249 242 245 248 253 249 239 234 232 232 235 232 230 224 230 233 235 228 228 221 223 229 232 234 235 235 228 224 224 234 246 254 255 254 258 260 267 284 285
263 262 256 254 254 247 247 245 247 251 246 239 236 236 229 233 232 229 226 230 240 237 233 228 227 230 232 232 233 236 231 224 223 228 237 250 246 246 243 259 265 270 279
263 263 257 255 256 255 254 251 247 249 249 244 237 236 234 230 228 227 227 225 236 239 238 230 231 233 233 234 236 235 231 231 229 230 233 228 231 217 255 250 251 259 270
261 266 265 257 252 255 254 253 251 250 251 248 239 233 232 228 226 229 231 227 230 240 240 239 234 238 232 229 234 235 231 230 234 234 237 241 253 257 255 249 248 257 264
270 269 268 266 260 254 255 255 254 252 250 251 249 244 235 237 234 227 229 229 230 236 242 243 239 236 230 227 230 231 230 231 233 235 241 246 251 258 256 263 253 255 264
294 273 263 253 250 257 261 259 254 249 248 253 250 248 245 238 236 230 228 230 232 235 239 239 238 237 225 224 228 230 229 231 233 238 242 249 256 264 264 267 275 278 282
289 232 228 222 215 223 231 240 246 244 245 253 254 252 249 246 238 235 231 230 232 234 241 245 239 232 223 230 225 227 229 228 234 236 243 252 259 264 270 276 282 289 297
5 320 259 229 226 229 234 239 242 252 255 250 255 256 252 245 245 238 236 234 237 239 242 241 235 224 222 227 224 221 219 224 231 238 248 262 266 272 279 282 287 293 294
339 345 294 249 240 240 242 247 253 260 263 251 251 257 257 245 240 239 235 234 238 242 239 234 226 221 222 222 218 216 222 222 229 242 254 260 271 280 284 285 289 292 296
324 311 303 274 268 272 272 264 268 273 266 253 250 257 255 245 236 233 231 232 238 234 230 227 220 216 217 213 210 209 206 224 233 244 257 268 276 283 286 289 290 291 290
321 308 302 267 260 273 279 270 273 273 268 256 249 256 250 234 226 227 230 233 233 229 226 217 215 212 210 205 203 202 207 228 237 253 270 278 283 287 289 289 291 292 292
314 310 294 279 279 290 306 300 284 278 266 249 246 249 231 221 221 220 223 222 222 219 216 209 206 203 200 199 195 200 207 231 258 272 283 290 294 292 290 290 293 293 293
328 323 299 265 285 288 297 306 301 281 264 245 235 227 210 218 218 216 213 213 210 206 200 199 201 196 195 196 191 208 227 257 264 282 290 291 293 291 290 292 294 296 297
310 299 321 291 276 283 283 286 294 271 251 227 214 205 213 206 207 207 201 202 200 197 194 190 187 182 183 197 200 198 219 246 271 289 293 287 287 288 289 293 297 298 297
308 312 322 306 257 256 260 272 269 249 211 203 200 195 191 186 189 190 191 191 188 186 177 180 178 186 181 189 195 213 263 279 291 284 280 283 285 286 289 293 294 294 297
306 317 322 326 276 250 254 247 244 225 209 193 177 176 170 175 181 182 183 176 170 166 168 172 174 175 172 197 255 299 302 278 271 277 283 287 288 287 286 284 286 293 298
307 280 228 208 209 209 221 186 164 171 162 157 157 162 171 177 174 168 167 162 159 159 159 160 167 187 210 220 241 267 260 275 287 291 293 293 293 295 296 294 296 295 290
33 178 158 143 142 144 140 138 136 147 147 150 152 159 164 159 153 153 151 148 152 150 155 168 174 196 94 267 261 273 285 293 297 301 300 302 305 305 304 307 305 301 299
54 99 117 133 142 143 142 141 139 144 147 142 142 144 159 147 151 147 142 143 152 157 156 157 169 127 251 274 287 292 296 302 304 306 306 308 310 310 312 308 303 301 300
78 106 137 142 144 141 148 142 121 123 132 137 139 135 134 135 135 139 139 138 130 118 117 99 201 242 275 288 297 305 311 311 309 309 310 311 312 312 318 306 303 299 302
72 124 139 135 127 134 150 139 137 138 139 140 132 129 136 138 138 141 134 119 123 117 149 196 264 276 280 287 294 295 296 302 305 309 309 312 314 316 304 300 292 301 313
93 107 123 131 139 144 146 134 131 126 128 129 129 128 127 132 133 126 119 123 145 166 203 269 276 282 289 292 292 294 297 300 304 307 313 320 319 308 312 311 310 308 304
96 102 101 113 124 134 132 128 122 125 124 128 130 128 116 109 111 119 130 146 154 211 287 288 288 294 297 297 299 303 305 311 315 316 319 301 312 318 316 315 315 313 313
114 117 118 116 115 119 123 121 126 129 127 124 122 117 117 120 126 130 122 77 344 320 310 304 301 301 305 309 308 313 322 327 323 320 315 315 314 315 317 317 317 317 321
139 139 131 126 123 126 127 126 127 126 129 128 129 131 128 123 118 108 13 321 304 300 303 306 311 315 319 326 325 327 328 322 312 306 314 319 323 327 328 329 330 331 331
145 144 141 139 136 137 135 131 133 142 139 138 137 134 132 127 128 263 284 298 314 321 323 326 325 320 320 312 319 323 325 309 320 317 324 332 334 337 337 336 336 338 339